Printer-friendly version

IAU Minor Planet Center

Minor Planet Center

MPEC 2007-V108: 2007 VH186

The following Minor Planet Electronic Circular may be linked-to from your own Web pages, but must not otherwise be redistributed electronically.


Read MPEC 2007-V107 Read MPEC 2007-V109


M.P.E.C. 2007-V108                               Issued 2007 Nov. 13, 20:24 UT

     The Minor Planet Electronic Circulars contain information on unusual
         minor planets and routine data on comets.  They are published
   on behalf of Commission 20 of the International Astronomical Union by the
          Minor Planet Center, Smithsonian Astrophysical Observatory,
                          Cambridge, MA 02138, U.S.A.

             Prepared using the Tamkin Foundation Computer Network

                              MPC@CFA.HARVARD.EDU
          URL http://www.cfa.harvard.edu/iau/mpc.html  ISSN 1523-6714

                                  2007 VH186

Observations:
     K07VI6H* C2007 11 11.17423 01 02 39.12 -10 39 54.5          20.1 V EV108703
     K07VI6H  C2007 11 11.18132 01 02 38.18 -10 39 32.1          20.4 V EV108703
     K07VI6H  C2007 11 11.18845 01 02 37.46 -10 39 11.2          20.7 V EV108703
     K07VI6H  C2007 11 11.19556 01 02 36.88 -10 38 51.7          19.2 V EV108703
     K07VI6H  C2007 11 11.26472 01 02 29.22 -10 35 23.7          19.0 V EV108703
     K07VI6H  C2007 11 11.26560 01 02 29.07 -10 35 20.5          19.4 V EV108703
     K07VI6H  C2007 11 11.26648 01 02 29.04 -10 35 18.9          19.0 V EV108703
     K07VI6H  C2007 11 11.26735 01 02 28.93 -10 35 16.0          20.1 V EV108703
     K07VI6H  C2007 11 12.22988 01 00 55.33 -09 47 20.4          20.2 V EV108703
     K07VI6H  C2007 11 12.23152 01 00 55.29 -09 47 15.3          19.4 V EV108703
     K07VI6H  C2007 11 12.23316 01 00 55.08 -09 47 10.0          20.1 V EV108703
     K07VI6H  C2007 11 12.23478 01 00 54.93 -09 47 04.8          19.6 V EV108703
     K07VI6H  C2007 11 13.20544 00 59 24.60 -08 58 26.6          20.5 V EV108703
     K07VI6H  C2007 11 13.20755 00 59 24.33 -08 58 19.9          20.5 V EV108703
     K07VI6H  C2007 11 13.20966 00 59 24.23 -08 58 13.6          20.2 V EV108703

Observer details:
703 Catalina Sky Survey.  Observer A. R. Gibbs.  Measurers E. C. Beshore,
    A. Boattini, G. J. Garradd, A. R. Gibbs, A. D. Grauer, R. E. Hill,
    R. A. Kowalski, S. M. Larson, R. H. McNaught.  0.68-m Schmidt + CCD.

Orbital elements:
2007 VH186                                               Earth MOID = 0.2944 AU
Epoch 2007 Oct. 27.0 TT = JDT 2454400.5                 MPC
M 334.83895              (2000.0)            P               Q
n   0.48107663     Peri.   13.83243     +0.43593787     -0.85953758
a   1.6130947      Node    51.03864     +0.78965181     +0.22312131
e   0.2073761      Incl.   20.06283     +0.43175015     +0.45979563
P   2.05           H   20.1           G   0.15           U   9
Residuals in seconds of arc
071111 703 (2.4+  1.2-)   071111 703  0.5-  0.7+    071112 703  0.3+  0.2+
071111 703  0.2-  0.1+    071111 703  0.5+  0.3-    071112 703  0.5+  0.6+
071111 703  0.6+  0.2-    071111 703  0.3+  0.0     071113 703  0.2+  0.1-
071111 703 (3.4+  1.8-)   071112 703  1.1-  0.3-    071113 703  0.7-  0.2+
071111 703  0.4+  0.2+    071112 703  0.9+  0.1-    071113 703  1.0+  0.2+

Ephemeris:
2007 VH186               a,e,i = 1.61, 0.21, 20                  q = 1.2786
Date    TT    R. A. (2000) Decl.     Delta      r     Elong.  Phase     V
2007 11 06    01 12.14   -14 49.3    0.379    1.311   142.1    27.7    19.8
2007 11 16    00 55.46   -06 37.0    0.390    1.298   135.8    32.1    20.0
2007 11 26    00 46.15   +01 45.4    0.419    1.288   128.0    37.1    20.3
2007 12 06    00 44.15   +09 33.1    0.460    1.281   120.4    41.5    20.6
2007 12 16    00 48.71   +16 29.3    0.511    1.279   113.7    44.8    20.9
2007 12 26    00 58.94   +22 34.3    0.569    1.280   108.0    46.9    21.2
2008 01 05    01 14.08   +27 53.5    0.631    1.284   103.3    48.2    21.5
2008 01 15    01 33.72   +32 33.1    0.696    1.293    99.2    48.7    21.7
2008 01 25    01 57.61   +36 36.9    0.762    1.305    95.8    48.6    21.9

Timothy B. Spahr             (C) Copyright 2007 MPC           M.P.E.C. 2007-V108

Read MPEC 2007-V107 Read MPEC 2007-V109


Our Web policy. Index to the CBAT/MPC/ICQ pages.


Valid HTML 4.01!